Hulianwang W. Digui 01-10

operational
NORAD ID: 62332 Int'l Des: 2024-240 Owner: ZXW Country: CN Constellation: xingwang
LEOCIRCULARPOLARONEWEB_TYPE

About Hulianwang W. Digui 01-10

Description loading...

Live Position

Loading 3D Globe...

Upcoming Passes

Altitude History

Altitude vs Time

uPlot chart will show altitude changes over time

Two-Line Element Set

1 62332U 24240K 25315.28389069 .00000077 00000-0 14572-3 0 9995
2 62332 86.5025 56.8564 0001988 103.9539 256.1816 13.24416505 43797
Epoch: Nov 11, 2025 • Age: 14 hours

Current Status

Altitude 1197.2 km
Velocity 7.25 km/s
Sub-Earth Point -78.56°S, 109.23°W
Launch Date Dec 16, 2024
Age 0.9 years
Type other

Technical Details

Classification Payload
Mass 800.00 kg
Dry Mass 800.00 kg
Total Mass 800.00 kg
Length 3.00 m
Diameter 1.00 m
Span 10.00 m
Shape Box + 2 Pan
Manufacturer CAST
Bus Type Guowang C
Phase Status In Orbit
Owner/State ZXW/CN

Large Constellations

Loading constellations...